Retour au catalogue

IUS DEB

LostHEO
NORAD 43360·DEBRIS·🇺🇸 United States

Lancé Jul 23, 1999 depuis Cape Canaveral Space Force Station

Loading…

Prochains Passages (prochaines 24 heures)

TLE

PériméSource: Space-Track

Époque: Jul 11, 2025, 10:33 UTC

1 43360U 99040H   25192.44022629  .00000022  00000-0  00000-0 0  9990
2 43360  27.8291 124.4691 3479214 180.0234 180.0219  7.07729844333505

Suivez IUS DEB en temps réel avec AllMySat

Download on the App Store